Wind_Speed
14 14 13 12 12 12 11 11 11 11 11 11 11 11 11 11 10 10 10 10 10 10 9 9 9 8 8 7 7 7 7 8 7 7 7 6 6 6 6 5 6 6
15 14 13 12 12 12 12 11 12 12 12 12 12 12 11 11 11 11 10 10 10 9 9 9 9 8 8 7 7 7 7 7 7 7 7 7 7 7 6 6 6 7
15 14 13 13 12 12 12 12 13 12 12 13 12 12 12 12 12 11 11 11 10 9 9 9 9 8 8 7 7 6 6 7 7 7 8 8 8 7 7 7 7 7
16 15 14 13 13 13 13 13 14 13 13 13 12 12 12 12 12 12 12 11 10 10 10 9 9 9 8 8 7 6 6 7 7 7 8 8 8 8 8 8 8 8
17 16 15 15 14 14 14 14 14 14 14 13 13 12 12 12 12 12 12 11 11 11 10 10 10 10 9 9 8 7 7 7 7 7 7 7 7 8 9 9 9 8
18 18 17 16 16 15 15 15 15 14 14 14 13 12 12 12 12 12 12 12 11 11 11 11 10 10 10 9 9 8 8 7 7 7 7 7 7 8 9 9 9 9
19 19 19 18 18 17 17 17 16 16 15 15 14 13 12 12 12 13 12 12 12 12 12 12 11 11 10 10 9 9 8 8 8 8 8 7 8 9 9 9 9 9
19 20 20 20 19 19 18 18 18 17 17 16 15 13 13 13 13 14 13 13 13 13 13 13 12 11 11 10 10 9 8 8 8 8 8 8 8 9 9 9 9 9
20 20 21 21 21 20 20 19 19 19 18 17 16 15 14 14 14 14 15 15 15 14 14 14 13 13 12 11 10 9 9 9 9 10 9 9 9 9 9 9 10 10
20 21 21 22 22 22 21 20 20 20 20 19 18 16 15 15 15 15 15 15 16 15 15 15 15 14 13 13 12 11 11 11 11 11 11 11 11 11 10 10 11 11
22 22 22 22 22 23 22 22 22 22 22 21 19 18 17 17 16 15 15 15 16 17 17 17 16 15 14 14 14 14 13 13 13 12 12 12 12 12 12 12 12 12
24 23 23 24 24 24 24 24 24 24 23 22 21 21 19 18 18 17 16 16 16 17 18 18 17 17 16 15 15 15 15 15 14 14 14 13 14 14 14 14 13 13
26 25 24 24 25 25 26 26 26 26 25 24 23 23 22 20 19 19 18 17 17 18 18 18 18 18 18 17 17 16 16 16 15 15 15 15 15 15 15 15 14 14
27 27 26 26 26 27 27 27 27 27 27 26 26 25 24 23 22 21 20 19 19 19 19 19 19 19 19 19 18 18 17 16 16 16 16 16 16 15 15 15 15 15
29 29 29 29 28 27 28 28 28 28 28 28 27 26 26 26 25 24 22 21 21 20 19 20 20 20 20 20 19 19 18 17 17 17 17 17 16 16 16 16 16 16
32 31 30 30 30 29 29 29 29 29 29 29 29 28 28 28 28 27 25 24 23 22 21 21 21 21 22 21 20 20 20 19 19 18 18 18 17 17 17 17 17 17
36 35 33 31 31 31 31 30 29 29 29 30 30 30 30 30 29 29 28 26 25 24 23 23 23 24 23 22 22 23 22 22 21 20 20 19 19 19 19 19 19 19
37 36 35 35 33 32 32 32 31 30 30 30 30 30 30 30 30 30 29 28 27 26 26 25 26 27 26 24 25 25 24 24 23 22 22 21 21 21 21 21 21 21
37 35 36 37 36 33 32 32 32 31 30 30 29 29 30 30 30 30 30 29 29 29 28 27 27 29 28 26 27 27 26 26 25 24 24 23 23 23 23 23 23 23
34 33 34 37 38 36 34 32 32 32 31 30 29 29 30 30 30 30 30 30 30 30 29 27 28 31 30 28 28 28 28 27 27 26 26 25 25 25 25 25 25 25
28 29 31 33 35 37 37 35 34 34 33 31 30 29 30 30 29 29 29 29 29 29 29 28 30 31 30 29 29 29 29 29 29 28 27 27 27 27 27 27 27 26
23 24 26 27 29 31 35 38 39 38 36 34 32 31 31 30 30 30 30 30 30 30 30 30 30 29 28 28 28 29 30 30 30 30 29 29 29 28 28 27 26 26
19 20 21 22 24 25 28 32 35 37 38 38 38 36 34 32 31 31 31 30 31 32 32 32 31 29 27 27 28 28 29 30 30 30 30 29 28 28 27 27 27 26
17 18 18 19 21 23 25 27 30 32 35 39 41 42 41 38 36 35 33 31 32 34 34 33 31 28 27 27 28 28 28 28 29 29 29 28 28 28 28 29 29 28
16 16 16 16 17 18 17 19 23 25 28 32 36 39 41 41 41 40 37 35 35 34 32 31 29 27 27 28 28 28 29 29 29 30 29 29 30 30 31 32 32 30
17 17 16 17 18 16 12 12 17 22 25 28 31 32 34 37 39 40 39 39 37 32 28 28 27 24 24 26 26 27 28 29 31 32 33 33 33 33 33 33 33 32
Wind_Direction
196 191 188 190 191 190 191 193 194 196 199 199 199 201 200 200 201 201 202 204 206 205 204 203 201 199 201 204 207 212 215 216 218 218 217 218 217 216 215 217 220 220
203 198 193 192 194 195 194 196 198 200 202 202 203 204 200 200 203 202 201 204 207 206 205 206 205 206 207 207 211 215 218 219 221 221 220 218 216 217 219 221 226 229
209 207 202 197 198 200 199 200 203 204 205 206 207 207 204 203 206 207 205 206 207 206 206 209 209 211 211 208 210 215 217 221 225 226 224 220 218 217 221 225 229 233
213 212 210 206 204 205 205 204 206 209 211 211 212 211 209 209 210 212 212 210 209 206 206 210 211 212 211 209 211 214 218 226 227 227 223 220 220 222 224 227 230 232
215 215 214 213 211 210 210 209 209 212 215 217 218 216 216 215 215 216 215 213 213 210 208 210 211 212 212 210 212 213 217 226 227 225 224 222 222 225 227 229 229 232
215 217 217 216 215 214 214 214 214 216 219 221 221 220 219 219 219 220 217 215 216 215 213 214 213 213 213 212 213 215 218 224 226 224 225 225 225 226 230 233 234 237
214 217 219 218 216 216 217 217 218 219 222 224 224 224 223 222 223 223 221 218 218 218 219 220 219 217 217 216 216 219 220 225 229 228 227 229 229 230 234 239 243 246
214 217 219 219 217 217 218 220 222 222 224 226 226 227 227 226 226 226 224 221 220 220 222 225 225 223 222 222 222 224 225 227 232 233 232 234 235 238 242 247 252 255
217 217 218 220 219 218 219 221 224 226 226 226 226 228 230 230 229 228 228 227 225 225 226 227 228 227 226 228 229 230 230 232 237 238 238 238 241 244 248 252 258 261
221 220 219 220 221 221 221 221 224 227 228 227 226 227 230 232 231 230 230 232 232 232 232 233 233 232 232 232 233 234 234 236 239 243 245 246 248 251 252 255 258 261
223 222 221 221 222 222 223 223 225 228 229 228 227 227 230 232 233 232 232 233 235 236 237 238 238 239 239 238 238 239 240 241 242 244 247 249 252 255 256 257 257 259
225 225 223 222 223 223 224 225 226 228 230 230 229 229 230 233 234 234 234 234 236 237 239 240 240 242 242 242 242 244 245 247 247 248 249 250 253 255 257 258 258 259
228 228 226 225 224 224 224 225 227 229 231 231 231 231 232 234 236 237 236 236 236 236 238 240 240 242 243 243 244 245 247 249 251 252 252 253 254 256 257 259 260 261
232 230 229 228 227 226 226 227 227 229 231 232 233 233 233 235 237 238 238 237 237 237 237 238 240 241 242 243 244 245 246 247 249 251 253 255 256 257 258 259 261 263
235 233 232 231 231 229 229 229 229 230 231 232 234 234 234 234 236 239 240 240 239 239 238 238 240 240 241 242 243 244 245 245 245 247 249 252 254 255 257 259 262 264
237 236 234 232 233 233 232 232 231 231 232 233 234 235 235 236 237 238 241 242 243 242 241 241 241 242 242 242 243 245 245 245 245 246 248 251 253 256 259 261 263 265
240 239 235 232 232 234 235 235 233 232 233 234 236 237 238 239 239 240 241 243 244 244 243 243 244 244 243 242 243 245 245 246 247 248 249 252 254 257 260 262 265 267
239 239 237 234 233 234 236 237 237 235 234 236 237 239 240 241 242 242 242 243 244 244 245 246 246 247 246 243 244 245 246 247 249 250 251 253 255 257 259 262 265 267
238 237 235 233 233 234 237 239 239 238 237 237 237 239 240 242 243 244 245 246 246 246 246 246 248 250 248 245 245 247 248 249 250 251 252 254 256 258 260 263 264 266
239 238 236 233 232 233 236 238 241 242 241 238 238 239 241 242 243 245 247 247 248 248 248 247 247 249 249 247 247 249 250 252 253 253 254 255 257 259 261 264 266 268
238 238 239 239 236 234 233 235 239 244 243 240 239 240 242 243 244 245 247 248 248 249 248 247 247 248 249 248 248 250 251 252 254 255 256 256 258 260 262 264 265 266
235 236 237 240 239 237 235 234 235 237 238 240 243 243 242 242 243 243 245 246 247 247 247 246 247 248 251 251 250 250 251 252 252 254 256 257 259 261 262 263 264 264
231 232 234 236 237 236 235 235 236 235 234 236 241 244 243 242 241 241 242 243 245 245 244 245 246 248 251 253 253 253 253 254 254 255 256 258 260 261 262 261 261 262
220 222 227 231 234 234 233 234 239 242 239 236 236 238 241 241 241 241 242 244 247 245 242 241 245 248 250 252 254 255 256 257 258 257 257 259 260 262 262 262 261 261
207 209 215 224 233 237 235 236 241 246 246 241 238 238 240 241 242 244 244 247 252 252 247 242 242 245 249 252 254 255 257 258 260 259 257 256 256 257 258 259 259 259
212 213 217 222 232 240 242 242 243 244 246 245 243 244 246 246 247 246 245 248 254 257 255 249 246 247 251 254 255 257 257 258 258 258 256 254 255 258 260 260 261 261
Height
3249 3250 3251 3252 3253 3254 3255 3256 3257 3257 3258 3259 3259 3260 3260 3261 3262 3263 3263 3264 3264 3265 3265 3266 3266 3266 3267 3267 3268 3268 3269 3269 3269 3269 3270 3270 3271 3271 3272 3272 3272 3273
3249 3250 3251 3252 3253 3254 3254 3255 3256 3257 3258 3259 3259 3260 3260 3261 3262 3262 3263 3263 3264 3264 3265 3265 3265 3266 3266 3267 3267 3268 3268 3268 3268 3269 3269 3269 3270 3270 3271 3271 3272 3272
3248 3249 3250 3251 3252 3253 3254 3255 3256 3256 3257 3258 3259 3259 3260 3261 3261 3262 3262 3263 3263 3264 3264 3265 3265 3265 3266 3266 3267 3267 3268 3268 3268 3268 3269 3269 3269 3269 3270 3270 3271 3271
3247 3248 3249 3250 3251 3252 3253 3254 3255 3256 3257 3258 3258 3259 3260 3260 3261 3261 3262 3262 3263 3263 3264 3264 3265 3265 3265 3266 3266 3267 3267 3268 3268 3268 3268 3268 3269 3269 3269 3270 3270 3270
3246 3247 3248 3249 3250 3251 3252 3253 3254 3255 3256 3257 3257 3258 3259 3260 3260 3261 3261 3262 3262 3263 3263 3264 3264 3265 3265 3266 3266 3267 3267 3267 3267 3268 3268 3268 3269 3269 3269 3269 3270 3270
3244 3246 3247 3248 3249 3250 3251 3252 3253 3254 3255 3256 3257 3257 3258 3259 3260 3260 3261 3261 3262 3262 3263 3263 3264 3264 3265 3265 3266 3266 3266 3267 3267 3267 3268 3268 3268 3269 3269 3269 3269 3269
3243 3244 3245 3247 3248 3249 3250 3251 3252 3253 3254 3255 3255 3257 3258 3259 3259 3260 3260 3261 3261 3262 3262 3263 3263 3264 3264 3265 3265 3265 3266 3266 3267 3267 3267 3268 3268 3268 3269 3269 3269 3269
3241 3243 3244 3245 3247 3248 3249 3250 3251 3252 3253 3254 3255 3256 3257 3258 3258 3259 3260 3260 3261 3261 3262 3262 3263 3263 3264 3264 3264 3265 3265 3266 3266 3267 3267 3267 3268 3268 3268 3269 3269 3269
3240 3241 3242 3243 3245 3246 3247 3248 3250 3251 3251 3252 3253 3254 3255 3256 3257 3258 3259 3259 3260 3260 3261 3261 3262 3262 3263 3263 3264 3264 3265 3265 3266 3266 3266 3267 3267 3267 3268 3268 3268 3268
3238 3239 3240 3241 3243 3244 3246 3247 3248 3249 3250 3251 3252 3253 3254 3255 3256 3257 3257 3258 3259 3259 3260 3260 3261 3261 3262 3262 3263 3263 3264 3264 3265 3265 3266 3266 3266 3267 3267 3267 3267 3267
3236 3237 3238 3239 3241 3242 3244 3245 3246 3247 3248 3249 3250 3251 3252 3253 3254 3255 3255 3256 3257 3258 3258 3259 3260 3260 3261 3262 3262 3263 3263 3263 3264 3264 3264 3265 3265 3266 3266 3266 3267 3267
3234 3235 3236 3237 3238 3240 3241 3242 3243 3244 3245 3247 3248 3249 3250 3251 3252 3253 3254 3254 3255 3256 3256 3257 3258 3259 3260 3260 3261 3261 3262 3262 3263 3263 3263 3263 3264 3264 3264 3265 3265 3265
3232 3233 3234 3235 3236 3237 3238 3240 3241 3242 3243 3244 3246 3247 3248 3249 3250 3251 3252 3252 3253 3254 3255 3255 3256 3257 3258 3259 3259 3260 3260 3261 3261 3261 3262 3262 3262 3262 3263 3263 3263 3264
3229 3231 3232 3233 3233 3234 3236 3237 3238 3240 3241 3242 3244 3245 3246 3248 3248 3249 3250 3251 3251 3252 3253 3254 3254 3255 3256 3257 3257 3258 3258 3259 3259 3259 3260 3260 3260 3261 3261 3261 3262 3262
3227 3228 3229 3230 3231 3232 3233 3235 3236 3237 3239 3240 3241 3243 3244 3245 3246 3247 3248 3249 3249 3250 3251 3252 3252 3253 3254 3255 3255 3256 3256 3256 3257 3257 3258 3258 3258 3259 3259 3259 3260 3260
3223 3225 3226 3228 3229 3230 3231 3232 3233 3235 3236 3237 3239 3240 3242 3243 3244 3245 3246 3247 3247 3248 3249 3250 3251 3251 3252 3252 3253 3253 3254 3254 3254 3255 3255 3256 3256 3257 3257 3258 3258 3258
3220 3222 3224 3225 3226 3228 3229 3230 3231 3232 3233 3235 3236 3238 3239 3240 3241 3243 3244 3245 3245 3246 3247 3248 3248 3248 3249 3250 3250 3250 3251 3251 3252 3253 3253 3254 3254 3254 3255 3255 3256 3256
3217 3219 3220 3222 3223 3225 3226 3228 3229 3229 3230 3232 3234 3235 3237 3238 3239 3240 3241 3242 3243 3244 3245 3245 3246 3245 3246 3248 3248 3248 3248 3249 3250 3250 3251 3251 3252 3252 3253 3253 3253 3254
3213 3215 3216 3218 3219 3221 3223 3225 3226 3227 3228 3229 3231 3232 3234 3235 3236 3237 3239 3240 3241 3241 3242 3243 3243 3242 3243 3244 3245 3245 3246 3246 3247 3248 3248 3249 3249 3250 3250 3251 3251 3251
3209 3210 3212 3213 3215 3217 3219 3221 3223 3225 3226 3226 3227 3229 3230 3231 3233 3234 3235 3236 3237 3238 3239 3240 3239 3238 3239 3241 3242 3242 3243 3244 3245 3245 3246 3246 3246 3247 3247 3248 3248 3248
3205 3206 3208 3209 3212 3214 3215 3216 3218 3221 3223 3224 3224 3226 3227 3228 3230 3231 3232 3233 3234 3235 3235 3236 3235 3234 3235 3237 3238 3239 3240 3241 3241 3242 3243 3243 3243 3244 3244 3244 3245 3245
3201 3202 3204 3206 3208 3209 3210 3212 3213 3215 3218 3220 3221 3222 3223 3225 3226 3227 3228 3228 3230 3231 3231 3231 3230 3231 3233 3234 3235 3236 3237 3237 3238 3239 3239 3240 3240 3240 3240 3241 3241 3241
3198 3199 3201 3202 3203 3205 3206 3207 3209 3210 3213 3215 3217 3218 3219 3220 3221 3222 3223 3224 3225 3226 3227 3227 3227 3229 3231 3231 3232 3233 3234 3234 3235 3235 3236 3236 3237 3237 3237 3237 3237 3238
3196 3197 3199 3199 3200 3201 3202 3203 3205 3207 3208 3210 3212 3213 3214 3215 3216 3217 3218 3219 3220 3220 3221 3222 3224 3226 3228 3228 3229 3230 3231 3231 3232 3232 3233 3233 3234 3234 3234 3234 3233 3234
3195 3196 3197 3197 3197 3198 3200 3201 3202 3204 3205 3205 3207 3208 3209 3210 3211 3212 3214 3215 3216 3217 3219 3221 3221 3222 3224 3224 3225 3227 3227 3228 3229 3229 3229 3229 3229 3229 3229 3228 3228 3230
3194 3195 3195 3196 3196 3197 3199 3200 3201 3202 3201 3201 3203 3205 3206 3207 3208 3209 3211 3213 3214 3215 3218 3218 3217 3218 3220 3221 3222 3223 3224 3225 3225 3225 3225 3225 3225 3225 3225 3225 3225 3226